Location: Arthez
(43.0833°N, 0.2500°W)
Time: 22:37:38
(UTC+00:00)

deb Kosmos-970 - Pass Details

Date: 21 August 2022
Orbit: 900 x 1112 km, 65.8° (Epoch: 28 September)

Event Time Altitude Azimuth Distance (km) Brightness Sun altitude
Rises 20:58:42 0° 328° (NNW) 3,947 ? -20.6°
Reaches altitude 10° 21:02:34 10° 347° (NNW) 2,981 ? -21.2°
Maximum altitude 21:07:03 17° 27° (NNE) 2,455 ? -21.8°
Drops below altitude 10° 21:11:27 10° 67° (ENE) 2,927 ? -22.4°
Enters shadow 21:11:58 - 70° (ENE) 3,037 ? -22.4°
